Regional Weather Roundup
Issued by NWS Newport/Morehead, NC

Current Version | Previous Version | Text Only | Print | Product List | Glossary Off
Versions: 1 2 3 4 5 6 7 8 9 10 11 12 13 14 15 16 17 18 19 20 21 22 23 24 25 26 27 28 29 30 31 32 33 34 35 36 37 38 39 40 41 42 43 44 45 46 47 48 49 50
000 ASUS42 KMHX 021324 RWRMHX WEATHER ROUNDUP FOR EASTERN NORTH CAROLINA NATIONAL WEATHER SERVICE NEWPORT/MOREHEAD CITY NC 800 AM EST FRI DEC 02 2016 NOTE: "FAIR" INDICATES FEW OR NO CLOUDS BELOW 12,000 FEET WITH NO SIGNIFICANT WEATHER AND/OR OBSTRUCTIONS TO VISIBILITY NCZ015>017-031-032-045>047-102-103-021400- NORTH COAST CITY SKY/WX TMP DP RH WIND PRES REMARKS EDENTON PTCLDY 41 37 86 CALM 30.12R ELIZABETH CITY CLEAR 39 38 96 W3 30.11R KITTY HAWK SUNNY 49 39 69 CALM 30.08R MANTEO SUNNY 49 37 63 N7 30.10R $$ NCZ045>047-081-094-103-104-021400- CENTRAL COAST CITY SKY/WX TMP DP RH WIND PRES REMARKS FRISCO SUNNY 52 42 69 VRB7 30.07R $$ NCZ095-097-098-100-101-021400- SOUTHERN COAST CITY SKY/WX TMP DP RH WIND PRES REMARKS BEAUFORT MOSUNNY 46 39 76 N8 30.10R CEDAR ISLAND NOT AVBL JACKSONVILLE PTCLDY 44 34 67 N9 30.12R PINEY ISLAND SUNNY N/A N/A N/A N12 30.09R WILMINGTON CLEAR 43 35 73 N5 30.12R $$ NCZ011>013-027>030-043-044-078>080-089-090>093-098-021400- COASTAL PLAIN CITY SKY/WX TMP DP RH WIND PRES REMARKS AHOSKIE PTCLDY 34 32 93 CALM 30.13R CLINTON CLEAR 38 37 94 CALM 30.15R ELIZABETHTOWN CLEAR 42 35 75 CALM 30.14R GOLDSBORO CLEAR 40 36 87 CALM 30.11R GREENVILLE CLEAR 37 37 100 CALM 30.14R HAVELOCK MOSUNNY 47 36 65 N12 30.11R KENANSVILLE CLEAR 39 36 87 CALM 30.14R KINSTON CLEAR 37 36 93 CALM 30.13R NEW BERN CLEAR 44 33 65 N7 30.12R RICHLANDS CLEAR 41 34 76 N3 30.13R ROCKY MOUNT CLEAR 36 34 92 CALM 30.13R WASHINGTON PTCLDY 41 34 76 CALM 30.13R WHITEVILLE CLEAR 44 33 66 N3 30.13R $$ AMZ130-135-150-152-154-156-158-170-250-252-270-ANZ085-086-088-633-658-670-021400- MARINE OBSERVATIONS STATION/POSITION TIME TEMP WIND PRES WAVE SWELL AIR SEA DIR/SP/G HT/PER HT/PER (UTC) (F) (DEG/KT/KT) (MB) (FT/S) (FT/S) CHESAPEAKE LIGHT NOT AVBL 64 E VA BEACH 1250 51 60 340/ 14/ 19 1017.5 4/ 6 2/ 7 DUCK 1300 48 57 310/ 9/ 11 1018.4 2 E DUCK NOT AVBL OREGON INLET 1300 51 59 340/ 7/ 10 1018.8 13E OREGON INLT 1300 62 N/A 5/ 6 3/ 6 HATTERAS CG 1300 53 62 350/ 13/ 17 1018.2 DIAMOND BUOY 1250 57 76 360/ 14/ 19 1017.6 4/ 9 2/ 9 CAPE LOOKOUT 1300 47 350/ 11/ 16 1018.5 BEAUFORT LAB 1300 47 58 10/ 12/ 16 1018.1 30 SE NEW RVR IN 1308 54 72 20/ 14/ 21 1018.9 30 SE NEW RVR IN NOT AVBL 27 SE WRIGHTSVLE 1308 54 69 30/ 16/ 21 1018.7 5 SE WRIGHTSVLE 1308 47 63 20/ 17/ 31 1018.7 225 S CAPE HAT 1250 71 74 310/ 14/ 17 1016.5 6/ 7 3/ 7 41 SE CHARLESTON 1250 58 74 340/ 8/ 12 1019.3 4/ 5 3/ 5 $$

USA.gov is the U.S. government's official web portal to all federal, state and local government web resources and services.